Regional Weather Roundup
Issued by NWS Charleston, SC

Current Version | Previous Version | Text Only | Print | Product List | Glossary On
Versions: 1 2 3 4 5 6 7 8 9 10 11 12 13 14 15 16 17 18 19 20 21 22 23 24 25 26 27 28 29 30 31 32 33 34 35 36 37 38 39 40 41 42 43 44 45 46 47 48 49 50
000 ASUS42 KCHS 051512 RWRCHS REGIONAL WEATHER ROUNDUP NATIONAL WEATHER SERVICE CHARLESTON SC 1000 AM EST FRI FEB 05 2016 NOTE: "FAIR" INDICATES FEW OR NO CLOUDS BELOW 12,000 FEET WITH NO SIGNIFICANT WEATHER AND/OR OBSTRUCTIONS TO VISIBILITY. NOT ALL STATIONS ARE QUALITY CONTROLLED BY THE NATIONAL WEATHER SERVICE. USE DATA WITH CAUTION...ESPECIALLY DEWPOINT OBSERVATIONS. NOTICE: OBSERVATIONS FOR THE SAVANNAH-HILTON HEAD INTERNATIONAL AIRPORT /KSAV/ HAVE BEEN TEMPORARILY REMOVED DUE TO AN ERRONEOUS TEMPERATURE SENSOR. THE OBSERVATION WILL BE REINTRODUCED ONCE REPAIRS ARE COMPLETE. SCZ027-030-031-034>040-042>050-051600- ...SOUTHEAST SOUTH CAROLINA... CITY SKY/WX TMP DP RH WIND PRES REMARKS N CHARLESTON MOSUNNY 50 31 48 N20 30.30R WATERFRONT PRK N/A 47 33 58 N15 30.14R MOUNT PLEASANT FAIR 48 34 57 N13G21 30.30R JOHNS ISLAND FAIR 50 32 50 N12G17 30.30R PINOPOLIS N/A 46 34 61 N15 30.21R MONCKS CORNER FAIR 45 28 53 N13G20 30.31R SUMMERVILLE FAIR 46 34 61 N16 30.31S BEAUFORT MCAS SUNNY 49 34 56 N14 30.32R BEAUFORT ARPT FAIR 46 32 57 N12G22 30.31R HAZE HILTON HEAD IS SUNNY 46 36 66 NW12G23 30.32R WALTERBORO SUNNY 48 32 53 N12G20 30.33R ALLENDALE FAIR 45 30 57 N13G20 30.33R ...SOUTHERN MIDLANDS AND PEE DEE... CITY SKY/WX TMP DP RH WIND PRES REMARKS GEORGETOWN NOT AVBL KINGSTREE NOT AVBL ORANGEBURG SUNNY 46 26 45 N12 30.33R BARNWELL FAIR 45 28 53 N17G24 30.34R AIKEN FAIR 41 21 45 N17 30.36R MANNING FAIR 45 28 53 N12G23 30.31S COLUMBIA SUNNY 45 20 36 N17G26 30.34R SUMTER SUNNY 44 25 47 N15G28 30.31R FLORENCE MOSUNNY 44 30 57 N15G26 30.32R MYRTLE BEACH NOT AVBL N MYRTLE BEACH SUNNY 45 33 63 N15G23 30.28R $$ GAZ063-065-086>088-099>101-113>116-118-119-134>141-150-051600- ...SOUTHEAST GEORGIA... CITY SKY/WX TMP DP RH WIND PRES REMARKS SAVANNAH ARPT SUNNY 46 28 49 N14 30.33R HUNTER AAF SUNNY 46 31 55 NW12 30.31R FORT STEWART SUNNY 45 27 49 NW15G21 30.33R STATESBORO SUNNY 47 22 37 N10G17 30.34S SYLVANIA SUNNY 45 31 57 N10G17 30.34R CLAXTON FAIR 44 30 57 NW9 30.35R ...CSRA...CENTRAL AND FAR SOUTHEAST GEORGIA... CITY SKY/WX TMP DP RH WIND PRES REMARKS THOMSON SUNNY 43 26 51 N8 30.39S AUGUSTA-BUSH SUNNY 44 23 43 N13 30.35R AUGUSTA-DANIEL SUNNY 43 21 41 N13 30.35R SWAINSBORO FAIR 43 27 52 NE8 30.36R VIDALIA MOSUNNY 43 27 52 N10 30.35S EASTMAN FAIR 42 19 38 N7 30.40R HAZLEHURST FAIR 43 24 45 N8 30.35S ALMA SUNNY 42 23 46 N10 30.36R WAYCROSS SUNNY 46 28 49 N10G20 30.36 JESUP FAIR 45 30 57 N13 30.35S BAXLEY FAIR 43 27 52 N8 30.36R BRUNSWICK SUNNY 45 28 53 NW9 30.34S SAINT SIMONS SUNNY 44 26 49 NW13G21 30.32R $$ SCZ027-028-034-036>038-045-046-048>050-GAZ119-141-051600- ...LAKE AND SUPPLEMENTAL COASTAL OBSERVATIONS... STATION/POSITION TIME TEMP WIND PRES WAVE SWELL AIR SEA DIR/SP/G HT/PER HT/PER/DIR (UTC) (F) (DEG/KT/KT) (MB) (FT/S) (FT/S/D) WINYAH BAY NOT AVBL LAKE MURRAY 1400 41 360/ 5/ 9 1025.7F ACE BASIN NERRS NOT AVBL FORT PULASKI 1400 42 54 320/ 15/ 19 1026.1R SAPELO ISLAND 1400 42 320/ 13 1026.0R $$ ANZ835-935-AMZ111-154-330-350-352-354-370-450-454-472-051600- ...C-MAN AND BUOY OBSERVATIONS... STATION/POSITION TIME TEMP WIND PRES WAVE SWELL AIR SEA DIR/SP/G HT/PER HT/PER/DIR (UTC) (F) (DEG/KT/KT) (MB) (FT/S) (FT/S/D) BUOY 41004 1450 50 68 10/ 25/ 31 1024.0R 9/ 6 2/10 BUOY 41008 1450 45 55 350/ 19/ 23 1026.3R 4/ 4 FOLLY BEACH CMAN 1500 48 360/ 15/ 18 1025.9R CAPERS NEARSHORE 1408 47 360/ 21/ 31 1024.3R FRIPP NEARSHORE 1400 46 340/ 17/ 19 1024.3R STATION/POSITION TIME TEMP WIND PRES WAVE SWELL AIR SEA DIR/SP/G HT/PER HT/PER/DIR (UTC) (F) (DEG/KT/KT) (MB) (FT/S) (FT/S/D) 5E ST. MARYS GA 1421 58 N/A 4/ 4 FRYING PAN BUOY 1400 49 66 340/ 23/ 31 1023.5R BUOY 41025 1450 69 340/ 29/ 37 1020.4R 9/ 7 CAPE LOOKOUT NC NOT AVBL BUOY 41002 1450 62 69 310/ 29/ 35 N/A 9/ 7 BUOY 41010 1420 63 74 1022.3R ST AUGUSTINE FL 1500 45 59 340/ 15/ 17 1027.0R $$

USA.gov is the U.S. government's official web portal to all federal, state and local government web resources and services.